[[{"header":{"parameterUnit":"m.s-1","parameterCategory":1,"la1":30.2991,"la2":30.254,"lo1":-89.0895,"lo2":-89.0444,"dy":0.0017,"dx":0.0017,"nx":28,"ny":28,"refTime":"2024-08-25T03:00:00:Z","depth":0,"parameterNumber":2,"parameterNumberName":"U-component_of_WINDS"},"data":[0,0,0,0,0,0,0,0,0,0,0,0,0,0,0,0,0,0,0,0,0,0,0,0,0,0,0,0,0,0,0,0,0,0,0,0,0,0,0,0,0,0,0,0,0,0,0,0,0,0,0,0,0,0,0,0,0,0,-0.1938,-0.1937,0,-0.1917,-0.1917,-0.1917,-0.189,-0.1889,-0.1889,-0.1889,-0.1868,-0.1868,-0.1868,0,0,0,0,0,0,0,0,0,0,0,0,0,-0.1955,-0.1955,-0.1938,-0.1937,-0.1937,-0.1917,-0.1917,-0.1917,-0.189,-0.1889,-0.1889,-0.1888,-0.1868,-0.1868,-0.1868,0,0,0,0,0,0,0,0,0,0,0,0,0,-0.1942,-0.1955,-0.1938,-0.1921,-0.192,-0.1917,-0.1917,-0.1916,-0.189,-0.1889,-0.1889,-0.1888,-0.1868,-0.1868,-0.1868,-0.188,0,0,-0.1867,-0.1867,0,0,0,0,0,0,0,0,-0.1943,-0.1942,-0.1924,-0.1923,-0.1921,-0.1905,-0.1915,-0.1904,-0.189,-0.1901,-0.1889,-0.1888,-0.1881,-0.188,-0.1877,-0.1879,-0.1878,-0.1867,-0.1867,-0.1867,-0.1867,0,0,0,0,0,0,0,-0.1944,-0.1942,-0.1929,-0.1924,-0.1922,-0.1916,-0.1913,-0.1913,-0.1895,-0.19,-0.1898,-0.1896,-0.188,-0.1878,-0.1877,-0.1877,-0.1867,-0.1867,-0.1867,-0.1867,-0.1889,-0.1889,0,0,0,0,0,0,-0.1947,-0.1943,-0.193,-0.1929,-0.193,-0.1916,-0.1913,-0.1911,-0.1895,-0.1892,-0.1897,-0.1895,-0.1878,-0.1877,-0.1876,-0.189,-0.1867,-0.1867,-0.1867,-0.1888,-0.1889,-0.189,0,0,0,0,0,0,-0.1948,-0.1946,-0.1931,-0.1936,-0.1933,-0.1916,-0.1914,-0.1911,-0.1908,-0.1892,-0.1889,-0.1898,-0.1878,-0.1876,-0.1879,-0.1889,-0.1867,-0.1866,-0.1887,-0.1888,-0.1889,-0.1917,0,0,0,0,0,0,-0.1948,-0.1947,-0.1951,-0.1936,-0.1933,-0.1934,-0.1915,-0.1911,-0.1908,-0.1906,-0.1892,-0.1889,-0.1877,-0.188,-0.1879,-0.1888,-0.1866,-0.1886,-0.1888,-0.1889,-0.1915,-0.1919,-0.1922,0,0,0,0,0,-0.1949,-0.1959,-0.1951,-0.1949,-0.1938,-0.1935,-0.1933,-0.1919,-0.1909,-0.1913,-0.1903,-0.189,-0.1887,-0.188,-0.1879,-0.1888,-0.1886,-0.1887,-0.1889,-0.1914,-0.1918,-0.1922,0,0,0,0,0,0,-0.1975,-0.1957,-0.1948,-0.1953,-0.1946,-0.193,-0.1935,-0.1924,-0.1919,-0.1917,-0.1899,-0.1897,-0.1902,-0.1895,-0.1887,-0.1899,-0.1885,-0.1886,-0.1904,-0.1908,-0.1911,-0.1913,-0.1866,0,0,0,0,0,-0.1982,-0.1981,-0.1965,-0.1971,-0.1968,-0.1952,-0.1951,-0.194,-0.1932,-0.1929,-0.1919,-0.1911,-0.1909,-0.1908,-0.1905,-0.1914,-0.1911,-0.192,-0.1923,-0.1926,-0.1928,-0.1933,-0.1937,-0.1895,-0.1895,-0.1895,0,0,-0.1995,-0.1985,-0.1985,-0.1976,-0.1969,-0.1969,-0.195,-0.195,-0.1951,-0.1929,-0.1931,-0.1924,-0.1915,-0.1921,-0.1923,-0.1916,-0.1939,-0.1928,-0.193,-0.1931,-0.1935,-0.1939,-0.1943,-0.1896,-0.1896,-0.1896,0,0,-0.202,-0.2011,-0.2016,-0.201,-0.2,-0.1989,-0.1991,-0.1977,-0.1972,-0.1974,-0.1958,-0.1958,-0.1954,-0.1948,-0.1945,-0.1968,-0.1957,-0.1968,-0.1986,-0.1992,-0.1995,-0.1998,-0.2008,-0.2011,-0.1969,-0.197,-0.197,0,-0.2037,-0.2037,-0.202,-0.2022,-0.2019,-0.2,-0.2005,-0.2,-0.1989,-0.1988,-0.1979,-0.1975,-0.1967,-0.1972,-0.1978,-0.1976,-0.1978,-0.197,-0.1996,-0.1999,-0.2001,-0.201,-0.2014,-0.1971,-0.1971,-0.1971,-0.1971,0,-0.206,-0.206,-0.2065,-0.2056,-0.2053,-0.2057,-0.2042,-0.2041,-0.2031,-0.2022,-0.2025,-0.2015,-0.201,-0.201,-0.2,-0.2015,-0.201,-0.1999,-0.1984,-0.2007,-0.2015,-0.2018,-0.1973,-0.1973,-0.1972,-0.1972,0,0,-0.21,-0.2083,-0.2085,-0.2081,-0.2069,-0.2068,-0.2072,-0.2067,-0.2067,-0.2061,-0.2064,-0.2061,-0.2051,-0.2047,-0.2036,-0.2041,-0.2062,-0.2029,-0.2029,-0.2037,-0.2079,-0.2088,-0.2093,-0.2054,-0.2054,-0.2055,-0.208,0,-0.2124,-0.2128,-0.2114,-0.2122,-0.2122,-0.2104,-0.2107,-0.21,-0.2092,-0.2091,-0.2081,-0.2081,-0.2066,-0.2064,-0.2068,-0.2059,-0.207,-0.2056,-0.2057,-0.2057,-0.2061,-0.2097,-0.2106,-0.2131,-0.2083,-0.2084,-0.2084,0,-0.2151,-0.2147,-0.2155,-0.2143,-0.2143,-0.2146,-0.2141,-0.214,-0.2132,-0.2126,-0.2122,-0.211,-0.2113,-0.2098,-0.2102,-0.2093,-0.2092,-0.2088,-0.2089,-0.2089,-0.2073,-0.2099,-0.2138,-0.2143,-0.2089,-0.2088,-0.2088,0,-0.2182,-0.2177,-0.2182,-0.2179,-0.2165,-0.2168,-0.2162,-0.2154,-0.2152,-0.2148,-0.2147,-0.2143,-0.2141,-0.2139,-0.2126,-0.2116,-0.2133,-0.2116,-0.2128,-0.2129,-0.2133,-0.2133,-0.2174,-0.2131,-0.2131,-0.2131,-0.2131,0,-0.221,-0.2216,-0.2196,-0.2199,-0.2206,-0.2189,-0.2197,-0.2189,-0.2182,-0.2184,-0.2167,-0.2169,-0.2151,-0.2152,-0.2142,-0.2148,-0.2147,-0.2142,-0.214,-0.2144,-0.2145,-0.2145,-0.2143,-0.2132,-0.2132,-0.2131,-0.2131,0,-0.2245,-0.2232,-0.2236,-0.2223,-0.222,-0.2225,-0.2214,-0.2217,-0.2207,-0.221,-0.221,-0.2195,-0.2195,-0.2181,-0.2178,-0.2171,-0.2182,-0.2176,-0.2185,-0.2183,-0.2197,-0.2196,-0.2239,-0.2245,-0.2197,-0.2198,-0.2198,0,-0.2265,-0.2269,-0.2256,-0.2256,-0.2252,-0.2252,-0.225,-0.2234,-0.2234,-0.2226,-0.223,-0.2228,-0.2226,-0.2226,-0.2216,-0.2213,-0.2208,-0.2223,-0.2207,-0.2212,-0.221,-0.221,-0.2211,-0.2227,-0.2227,-0.2228,-0.2228,0,-0.2301,-0.2294,-0.2292,-0.2289,-0.2288,-0.2284,-0.2279,-0.228,-0.2263,-0.2263,-0.2263,-0.2261,-0.2258,-0.2257,-0.2253,-0.2248,-0.2236,-0.2233,-0.2236,-0.2241,-0.2247,-0.2246,-0.2195,-0.2232,-0.2232,-0.2232,-0.2231,-0.2231,-0.233,-0.2333,-0.2325,-0.2324,-0.2319,-0.2315,-0.2318,-0.2309,-0.2308,-0.2304,-0.2295,-0.2296,-0.2289,-0.2283,-0.2278,-0.228,-0.2272,-0.2276,-0.2277,-0.2279,-0.2282,-0.2246,-0.2279,-0.2279,-0.2278,-0.2278,-0.2278,0,-0.2366,-0.236,-0.2359,-0.2354,-0.2353,-0.2341,-0.2336,-0.2336,-0.2338,-0.2332,-0.233,-0.2331,-0.233,-0.2319,-0.2317,-0.232,-0.2315,-0.232,-0.2321,-0.232,-0.2288,-0.2286,-0.2325,-0.2325,-0.2325,-0.2325,-0.2325,-0.2325,-0.2385,-0.2391,-0.2384,-0.2387,-0.2381,-0.2382,-0.238,-0.2377,-0.2373,-0.2373,-0.2373,-0.2366,-0.2358,-0.2356,-0.2355,-0.2352,-0.2353,-0.236,-0.2356,-0.2326,-0.2322,-0.2318,-0.2316,-0.236,-0.236,-0.2388,-0.2388,-0.2388]},{"header":{"parameterUnit":"m.s-1","parameterCategory":1,"la1":30.2991,"la2":30.254,"lo1":-89.0895,"lo2":-89.0444,"dy":0.0017,"dx":0.0017,"nx":28,"ny":28,"refTime":"2024-08-25T03:00:00:Z","depth":0,"parameterNumber":3,"parameterNumberName":"V-component_of_WINDS"},"data":[0,0,0,0,0,0,0,0,0,0,0,0,0,0,0,0,0,0,0,0,0,0,0,0,0,0,0,0,0,0,0,0,0,0,0,0,0,0,0,0,0,0,0,0,0,0,0,0,0,0,0,0,0,0,0,0,0,0,1.5484,1.5483,0,1.5443,1.5443,1.5442,1.5415,1.5415,1.5415,1.5415,1.537,1.5369,1.5368,0,0,0,0,0,0,0,0,0,0,0,0,0,1.5535,1.5534,1.5484,1.5483,1.5483,1.5443,1.5443,1.5442,1.5415,1.5415,1.5415,1.5415,1.537,1.5369,1.5368,0,0,0,0,0,0,0,0,0,0,0,0,0,1.5505,1.5534,1.5484,1.5465,1.5463,1.5443,1.5443,1.5442,1.5415,1.5415,1.5415,1.5415,1.537,1.5369,1.5367,1.5363,0,0,1.5363,1.5362,0,0,0,0,0,0,0,0,1.5507,1.5503,1.5468,1.5466,1.5464,1.5434,1.5444,1.5415,1.5415,1.5433,1.5415,1.5414,1.5391,1.5388,1.5381,1.5361,1.5359,1.5362,1.5361,1.5361,1.536,0,0,0,0,0,0,0,1.5509,1.5505,1.5468,1.5468,1.5465,1.5457,1.5453,1.5439,1.5414,1.5432,1.543,1.5425,1.539,1.5382,1.5379,1.5358,1.5362,1.5361,1.536,1.536,1.5331,1.5332,0,0,0,0,0,0,1.5515,1.5507,1.5469,1.5466,1.5485,1.5456,1.5451,1.5444,1.5414,1.5409,1.5426,1.5424,1.5385,1.5381,1.5378,1.537,1.5361,1.5359,1.5358,1.5331,1.5331,1.5332,0,0,0,0,0,0,1.5516,1.5512,1.5471,1.5486,1.548,1.5456,1.5448,1.5443,1.5436,1.541,1.5405,1.5423,1.5385,1.538,1.5367,1.5368,1.5359,1.5357,1.5331,1.5331,1.5332,1.5354,0,0,0,0,0,0,1.5518,1.5512,1.5511,1.5486,1.548,1.5462,1.5448,1.5443,1.5433,1.5431,1.5405,1.5401,1.5384,1.5369,1.5365,1.5365,1.5356,1.5331,1.5331,1.5331,1.5353,1.5355,1.5357,0,0,0,0,0,1.5519,1.5519,1.5511,1.5507,1.5478,1.5462,1.5458,1.5439,1.5434,1.5432,1.5415,1.5402,1.5369,1.5368,1.5363,1.5363,1.5331,1.5331,1.5331,1.5353,1.5355,1.5357,0,0,0,0,0,0,1.5543,1.5515,1.5506,1.5498,1.5483,1.5457,1.5454,1.5443,1.5428,1.5426,1.5403,1.5397,1.5386,1.5373,1.5374,1.5357,1.5348,1.5347,1.5366,1.5368,1.537,1.5372,1.5355,0,0,0,0,0,1.5547,1.5538,1.5513,1.5508,1.5501,1.5479,1.5471,1.5458,1.5441,1.5434,1.5416,1.5399,1.5385,1.5376,1.5361,1.5352,1.5345,1.5349,1.5351,1.5353,1.5352,1.5345,1.5347,1.5333,1.5333,1.5333,0,0,1.5556,1.5539,1.5534,1.5512,1.5499,1.5488,1.5474,1.5463,1.5454,1.5432,1.5419,1.5405,1.5384,1.5373,1.5367,1.5362,1.5355,1.5353,1.5355,1.5353,1.5346,1.5347,1.5348,1.5333,1.5333,1.5333,0,0,1.5566,1.5553,1.5546,1.5534,1.5514,1.5499,1.5498,1.5474,1.5465,1.5451,1.5434,1.5423,1.5399,1.5385,1.5374,1.5379,1.5366,1.5375,1.5384,1.5378,1.5379,1.5379,1.538,1.5381,1.5374,1.5374,1.5374,0,1.5578,1.5562,1.5544,1.5535,1.5525,1.5506,1.5499,1.5487,1.5463,1.5456,1.5451,1.542,1.5404,1.5389,1.539,1.5383,1.5379,1.5377,1.538,1.5381,1.5381,1.5382,1.5382,1.5376,1.5375,1.5375,1.5375,0,1.5579,1.5568,1.5565,1.5544,1.5533,1.5525,1.5505,1.5497,1.5485,1.5471,1.5456,1.5437,1.5418,1.5414,1.5402,1.5396,1.5394,1.5385,1.5375,1.5384,1.5384,1.5384,1.5377,1.5377,1.5376,1.5376,0,0,1.5601,1.557,1.557,1.5559,1.5536,1.5527,1.5517,1.55,1.5493,1.5477,1.5467,1.5448,1.5439,1.5427,1.5413,1.5408,1.5411,1.5399,1.5398,1.5401,1.5403,1.541,1.541,1.5403,1.5403,1.5403,1.5405,0,1.5607,1.559,1.5573,1.5562,1.5551,1.5532,1.5524,1.5508,1.5494,1.5482,1.5467,1.5453,1.5443,1.5436,1.543,1.5412,1.5411,1.5412,1.5393,1.5392,1.5398,1.541,1.5417,1.542,1.5405,1.5405,1.5405,0,1.5611,1.5597,1.5585,1.5562,1.5557,1.555,1.5532,1.5522,1.5503,1.5493,1.548,1.5466,1.5453,1.5446,1.5428,1.5429,1.542,1.541,1.541,1.5406,1.5398,1.5406,1.542,1.542,1.5405,1.5405,1.5405,0,1.5628,1.5606,1.5596,1.5588,1.5561,1.5557,1.5545,1.5527,1.5517,1.5501,1.5494,1.5477,1.5467,1.5453,1.5434,1.5431,1.5418,1.5409,1.5408,1.5409,1.5405,1.5406,1.5417,1.5401,1.5401,1.5401,1.5401,0,1.5636,1.5629,1.5603,1.5596,1.5587,1.5568,1.5559,1.5546,1.553,1.5519,1.5502,1.5492,1.5468,1.5455,1.544,1.5427,1.5423,1.5414,1.5409,1.5415,1.5416,1.5408,1.5407,1.5401,1.5401,1.5401,1.5401,0,1.5653,1.5636,1.5623,1.5599,1.5593,1.5588,1.5567,1.5559,1.5545,1.5532,1.5528,1.5505,1.5489,1.5468,1.5446,1.5435,1.5423,1.5418,1.543,1.5427,1.5428,1.5428,1.5433,1.5433,1.5419,1.5419,1.5419,0,1.5658,1.5652,1.5629,1.5621,1.5611,1.5599,1.5589,1.5569,1.556,1.5538,1.5533,1.5516,1.5501,1.5476,1.5456,1.5438,1.5431,1.5435,1.5429,1.5434,1.543,1.5431,1.543,1.5436,1.5436,1.5437,1.5437,0,1.567,1.5661,1.5649,1.5633,1.5622,1.5609,1.5594,1.5589,1.5566,1.5556,1.554,1.5528,1.5506,1.5488,1.5468,1.5455,1.5441,1.5439,1.5438,1.5443,1.545,1.5445,1.5433,1.5439,1.5438,1.5438,1.5438,1.5438,1.568,1.5674,1.5657,1.5643,1.563,1.5617,1.5609,1.5593,1.558,1.5561,1.555,1.5534,1.5515,1.5486,1.5474,1.546,1.5455,1.5454,1.5453,1.5453,1.5454,1.5453,1.5456,1.5456,1.5456,1.5456,1.5456,0,1.569,1.5678,1.5666,1.5646,1.5635,1.5625,1.5609,1.56,1.5586,1.557,1.5556,1.5537,1.5521,1.55,1.5482,1.5475,1.5468,1.547,1.547,1.5467,1.546,1.5463,1.5476,1.5476,1.5476,1.5476,1.5476,1.5476,1.5694,1.5683,1.5672,1.5654,1.5642,1.5627,1.5618,1.5606,1.5593,1.5573,1.5559,1.5546,1.5528,1.5508,1.5492,1.5486,1.5479,1.5483,1.5476,1.5469,1.5468,1.5466,1.5468,1.5482,1.5482,1.5484,1.5484,1.5484]}]]